Location: Bowman Observatory
(41.0326°N, 73.6210°W)
Time: 18:59:48
(UTC-04:00)

Cosmos 2298 Rocket - Visible Passes

Search period start: 30 June 2016 00:00
Search period end: 10 July 2016 00:00
Orbit: 777 x 784 km, 74.0° (Epoch: 30 June)

Date Brightness Start Highest point End Pass type
(mag) Time Alt. Az. Time Alt. Az. Time Alt. Az.
30 Jun 4.0 21:35:27 10° S 21:40:43 70° ESE 21:46:01 10° NNE visible
30 Jun 6.7 23:20:16 10° W 23:23:35 17° NW 23:26:56 10° NNW visible
01 Jul 4.4 21:02:23 10° S 21:07:23 43° ESE 21:12:24 10° NNE visible
01 Jul 6.3 22:45:35 10° WSW 22:49:53 25° WNW 22:54:13 10° N visible
02 Jul 5.6 22:11:22 10° SW 22:16:16 37° WNW 22:21:12 10° N visible
03 Jul 4.8 21:37:30 10° SSW 21:42:44 57° WNW 21:47:59 10° NNE visible
04 Jul 4.1 21:03:58 10° SSW 21:09:17 90° WNW 21:14:38 10° NNE visible
04 Jul 7.1 22:50:00 10° W 22:52:24 13° NW 22:54:49 10° NNW visible
05 Jul 6.8 22:14:50 10° WSW 22:18:38 19° WNW 22:22:26 10° N visible
06 Jul 6.2 21:40:23 10° WSW 21:44:58 29° WNW 21:49:34 10° N visible
07 Jul 5.4 21:06:19 10° SW 21:11:23 44° WNW 21:16:28 10° N visible
09 Jul 7.2 21:44:20 10° W 21:47:24 15° NW 21:50:29 10° NNW visible
